Weather History for 78774 - March, 2013

Change the Weather History Date:

Wednesday, March 27, 2013

  Actual Average Record
Temperature  
Mean Temperature 88 °F -  
Max Temperature 96 °F 93 °F - ()
Min Temperature 79 °F 76 °F - ()
Cooling Degree Days 22    
Growing Degree Days 38 (Base 50)    
Moisture  
Dew Point 60 °F    
Average Humidity 40    
Maximum Humidity 58    
Minimum Humidity 17    
Precipitation  
Precipitation 0.00 in - - ()
Sea Level Pressure  
Sea Level Pressure 29.85 in    
Wind  
Wind Speed 23 mph ()    
Max Wind Speed 33 mph    
Max Gust Speed 46 mph    
Visibility 8.3 miles    
Events      
T = Trace of Precipitation, MM = Missing Value Source: Averaged Metar Reports

Daily Weather History Graph

Daily Weather History Graph

Search for Another Location

Airport or City:

Trip Planner

Search our weather history database for the weather conditions in past years. The results will help you decide how hot, cold, wet, or windy it might be!

Date:

Astronomy

Mar. 27, 2013 Rise Set
Actual Time 5:42 AM CST 5:52 PM CST
Civil Twilight 5:20 AM CST 6:14 PM CST
Nautical Twilight 4:56 AM CST 6:38 PM CST
Astronomical Twilight 4:31 AM CST 7:03 PM CST
Moon 6:20 PM CST (3/27) 5:41 AM CST (3/27)
Length of Visible Light 12h 53m
Length of Day
12h 10m
Full, 100% of the Moon is Illuminated
Mar 27
Full
Apr 2
Last Quarter
Apr 10
New
Apr 18
First Quarter
Apr 25
Full

Hourly Weather History & Observations

Time (CST) Temp. Heat Index Dew Point Humidity Pressure Visibility Wind Dir Wind Speed Gust Speed Precip Events Conditions
6:00 AM 80 °F - 65 °F 51% 29.84 in 12 mi ENE 21.9 mph - -   Scattered Clouds
6:00 AM 80.6 °F 82.3 °F 64.4 °F 58% 29.83 in 6.2 mi ENE 21.9 mph 33.4 mph N/A   Mostly Cloudy
7:00 AM 82.4 °F 83.9 °F 64.4 °F 54% 29.86 in 6.2 mi ENE 25.3 mph 39.1 mph N/A   Mostly Cloudy
8:00 AM 84.2 °F 85.0 °F 62.6 °F 48% 29.88 in 6.2 mi ENE 26.5 mph 38.0 mph N/A   Mostly Cloudy
9:00 AM 85 °F - 62 °F 37% 29.92 in 12 mi ENE 29.9 mph - -   Scattered Clouds
9:00 AM 86.0 °F 86.6 °F 62.6 °F 45% 29.91 in 6.2 mi ENE 29.9 mph 43.7 mph N/A   Mostly Cloudy
10:00 AM 87.8 °F 87.1 °F 59.0 °F 38% 29.91 in - ENE 31.1 mph 42.6 mph N/A   Clear
11:00 AM 91.4 °F 90.7 °F 59.0 °F 34% 29.90 in 6.2 mi NE 32.2 mph - N/A   Mostly Cloudy
12:00 PM 92 °F - 56 °F 21% 29.89 in 12 mi NE 29.9 mph - -   Scattered Clouds
12:00 PM 91.4 °F 89.9 °F 57.2 °F 31% 29.88 in 6.2 mi NE 29.9 mph 41.4 mph N/A   Mostly Cloudy
1:00 PM 93.2 °F 91.3 °F 55.4 °F 28% 29.84 in 6.2 mi ENE 29.9 mph - N/A   Mostly Cloudy
2:00 PM 87.8 °F 87.1 °F 59.0 °F 38% 29.81 in 6.2 mi ENE 24.2 mph 36.8 mph N/A   Mostly Cloudy
3:00 PM 93 °F - 53 °F 17% 29.81 in 12 mi NE 33.4 mph - -   Clear
3:00 PM 93.2 °F 90.8 °F 53.6 °F 26% 29.80 in 6.2 mi NE 33.4 mph - N/A   Mostly Cloudy
4:00 PM 91.4 °F 89.4 °F 55.4 °F 29% 29.79 in - ENE 29.9 mph 41.4 mph N/A   Clear
5:00 PM 87.8 °F 86.5 °F 57.2 °F 35% 29.80 in - ENE 23.0 mph 36.8 mph N/A   Clear
6:00 PM 85 °F - 60 °F 33% 29.83 in 12 mi ENE 24.2 mph - -   Clear
6:00 PM 86.0 °F 86.1 °F 60.8 °F 43% 29.82 in - ENE 24.2 mph 46.0 mph N/A   Clear
7:00 PM 84.2 °F 83.8 °F 59.0 °F 42% 29.84 in - ENE 23.0 mph 35.7 mph N/A   Clear
8:00 PM 82.4 °F 83.4 °F 62.6 °F 51% 29.86 in - East 25.3 mph 36.8 mph N/A   Clear
9:00 PM 80.6 °F 81.8 °F 62.6 °F 54% 29.88 in - East 21.9 mph 35.7 mph N/A   Clear
10:00 PM 80.6 °F 82.3 °F 64.4 °F 58% 29.87 in - East 21.9 mph - N/A   Clear